Location: Kiltepe
(36.4752°N, 30.0120°E)
Time: 21:52:58
(UTC+00:00)

Cosmos 2333 Rocket - Pass Details

Date: 03 August 2024
Orbit: 839 x 863 km, 70.8° (Epoch: 17 September)

Event Time Altitude Azimuth Distance (km) Brightness Sun altitude
Exits shadow 23:09:12 28° 75° (ENE) 1,549 3.7 -34.3°
Drops below altitude 10° 23:12:45 10° 42° (NE) 2,497 5.3 -34.1°
Sets 23:15:27 0° 33° (NNE) 3,441 6.4 -33.9°
